{"data":{"norad_id":66927,"epoch":"2026-09-20T10:45:06.187392Z","epoch_age_seconds":88523,"freshness":"FRESH","line1":"1 66927U 25286C   26263.44798828  .00022341  00000+0  67040-3 0  9993","line2":"2 66927  53.1591 169.6670 0003078  76.3702 283.7643 15.34396768 45299","mean_motion":15.34396768,"eccentricity":0.0003078,"inclination_deg":53.1591,"raan_deg":169.667,"arg_perigee_deg":76.3702,"mean_anomaly_deg":283.7643,"bstar":0.0006704,"rev_number":4529,"period_min":93.847955758989,"perigee_km":460.60723282636,"apogee_km":464.81845999181,"semimajor_km":6840.8498464091,"source":"CELESTRAK","updated_at":"2026-09-21T09:00:36.055804Z"}}